Weather History for Casper, WY

Change the Weather History Date:

Monday, February 4, 2013

  Actual Average Record
Temperature  
Mean Temperature 37 °F 25 °F  
Max Temperature 50 °F 36 °F 61 °F (1963)
Min Temperature 23 °F 14 °F -27 °F (1982)
Degree Days  
Heating Degree Days 28 40  
Month to date heating degree days 127 160  
Since 1 July heating degree days 4078 4537  
Cooling Degree Days 0 0  
Month to date cooling degree days 0 0  
Year to date cooling degree days 0 0  
Moisture  
Dew Point 13 °F    
Average Humidity 43    
Maximum Humidity 63    
Minimum Humidity 23    
Precipitation  
Precipitation 0.00 in 0.01 in 0.18 in (1986)
Month to date precipitation T 0.07  
Year to date precipitation 0.27 0.58  
Snow  
Snow 0.00 in 0.40 in - ()
Month to date snowfall T 1.4  
Since 1 July snowfall 23.2 41.0  
Snow Depth -    
Sea Level Pressure  
Sea Level Pressure 29.90 in    
Wind  
Wind Speed 17 mph (SW)    
Max Wind Speed 26 mph    
Max Gust Speed 35 mph    
Visibility 10 miles    
Events      
T = Trace of Precipitation, MM = Missing Value Source: NWS Daily Summary

Daily Weather History Graph

Daily Weather History Graph

Search for Another Location

Airport:

Trip Planner

Search our weather history database for the weather conditions in past years. The results will help you decide how hot, cold, wet, or windy it might be!

Date:

Astronomy

Feb. 04, 2013 Rise Set
Actual Time 7:17 AM MST 5:23 PM MST
Civil Twilight 6:47 AM MST 5:53 PM MST
Nautical Twilight 6:13 AM MST 6:26 PM MST
Astronomical Twilight 5:40 AM MST 6:59 PM MST
Moon 1:57 AM MST (2/4) 11:47 AM MST (2/4)
Length of Visible Light 11h 05m
Length of Day
10h 06m
Last Quarter, 36% of the Moon is Illuminated
Feb 4
Last Quarter
Feb 10
New
Feb 17
First Quarter
Feb 25
Full
Mar 4
Last Quarter

Hourly Weather History & Observations

Time (MST) Temp. Windchill Dew Point Humidity Pressure Visibility Wind Dir Wind Speed Gust Speed Precip Events Conditions
12:53 AM 30.0 °F 19.5 °F 15.1 °F 54% 29.94 in 10.0 mi SSW 13.8 mph - N/A   Clear
1:53 AM 28.9 °F 19.2 °F 12.9 °F 51% 29.96 in 10.0 mi SW 11.5 mph - N/A   Clear
3:53 AM 28.9 °F 17.3 °F 12.0 °F 49% 29.94 in 10.0 mi SSW 16.1 mph - N/A   Clear
4:53 AM 28.9 °F 17.7 °F 12.0 °F 49% 29.92 in 10.0 mi SW 15.0 mph - N/A   Clear
5:53 AM 28.9 °F 15.8 °F 10.9 °F 47% 29.93 in 10.0 mi SW 20.7 mph 29.9 mph N/A   Clear
6:53 AM 30.9 °F 17.5 °F 10.0 °F 42% 29.93 in 10.0 mi SW 24.2 mph 29.9 mph N/A   Overcast
7:53 AM 30.9 °F 17.5 °F 10.0 °F 42% 29.95 in 10.0 mi SW 24.2 mph 29.9 mph N/A   Overcast
8:53 AM 33.1 °F 20.3 °F 10.0 °F 38% 29.95 in 10.0 mi SW 24.2 mph 32.2 mph N/A   Overcast
9:53 AM 35.1 °F 24.1 °F 10.9 °F 37% 29.98 in 10.0 mi SW 19.6 mph 28.8 mph N/A   Overcast
10:53 AM 37.0 °F 25.9 °F 12.0 °F 36% 29.94 in 10.0 mi SW 23.0 mph 31.1 mph N/A   Clear
11:53 AM 44.1 °F 35.2 °F 12.9 °F 28% 29.89 in 10.0 mi SW 23.0 mph 29.9 mph N/A   Clear
12:44 PM 48.2 °F - 12.2 °F 24% 29.85 in 10.0 mi WSW 18.4 mph 28.8 mph N/A   Mostly Cloudy
12:53 PM 48.0 °F - 12.0 °F 24% 29.84 in 10.0 mi West 21.9 mph 27.6 mph N/A   Mostly Cloudy
1:53 PM 48.0 °F - 12.0 °F 24% 29.82 in 10.0 mi West 21.9 mph 28.8 mph N/A   Clear
2:53 PM 48.9 °F - 12.9 °F 24% 29.82 in 10.0 mi WNW 19.6 mph 27.6 mph N/A   Clear
3:53 PM 48.9 °F - 12.9 °F 24% 29.82 in 10.0 mi West 18.4 mph 25.3 mph N/A   Clear
4:53 PM 45.0 °F 38.5 °F 15.1 °F 30% 29.85 in 10.0 mi WSW 13.8 mph 21.9 mph N/A   Clear
5:53 PM 37.9 °F 30.9 °F 16.0 °F 41% 29.88 in 10.0 mi West 10.4 mph - N/A   Clear
6:53 PM 34.0 °F 25.0 °F 16.0 °F 48% 29.88 in 10.0 mi WSW 12.7 mph - N/A   Clear
7:53 PM 30.0 °F 22.4 °F 16.0 °F 56% 29.92 in 10.0 mi WSW 8.1 mph - N/A   Clear
8:53 PM 35.1 °F 28.6 °F 17.1 °F 48% 29.90 in 10.0 mi SW 8.1 mph - N/A   Clear
9:53 PM 36.0 °F 26.0 °F 17.1 °F 46% 29.91 in 10.0 mi SW 17.3 mph 25.3 mph N/A   Clear
10:53 PM 32.0 °F 23.0 °F 17.1 °F 54% 29.93 in 10.0 mi SW 11.5 mph - N/A   Clear
11:53 PM 32.0 °F 24.2 °F 16.0 °F 52% 29.93 in 10.0 mi SSW 9.2 mph - N/A   Clear